Regional Weather Roundup
Issued by NWS

Home | Current Version | Previous Version | Graphics & Text | Print | Product List | Glossary On
Versions: 1 2 3 4 5 6 7 8 9 10 11 12 13 14 15 16 17 18 19 20 21 22 23 24 25 26 27 28 29 30 31 32 33 34 35 36 37 38 39 40 41 42 43 44 45 46 47 48 49 50
095
ASUS43 KMPX 110010
RWRMN
WEATHER ROUNDUP FOR MINNESOTA
NATIONAL WEATHER SERVICE TWIN CITIES/CHANHASSEN MN
600 PM CST SAT DEC 10 2016


NOTE: "FAIR" INDICATES FEW OR NO CLOUDS BELOW 12,000 FEET WITH NO
SIGNIFICANT WEATHER AND/OR OBSTRUCTIONS TO VISIBILITY. N/A MEANS
CURRENT SKY AND/OR WEATHER CONDITIONS ARE NOT AVAILABLE.

MNZ060>063-068>070-110100-
   Twin Cities Metro

CITY           SKY/WX    TMP DP  RH WIND       PRES   REMARKS
TWIN CITIES    LGT SNOW  12   7  80 SE10      30.26F WCI  -1
6HR MIN TEMP:   9; 6HR MAX TEMP:  12; 6HR PCP:  0.04;

ST PAUL        LGT SNOW  12   8  84 E7        30.29F FOG     WCI   1
CRYSTAL        LGT SNOW  11   5  77 E8        30.25F WCI  -1
BLAINE         LGT SNOW  12   9  85 E6        30.26F WCI   3
LAKEVILLE      LGT SNOW   9   7  92 E8        30.25F WCI  -4
EDEN PRAIRIE   LGT SNOW  12   7  80 E6        30.25F WCI   3
6HR MIN TEMP:  11; 6HR MAX TEMP:  12; 6HR PCP:  0.01;

SOUTH ST PAUL  LGT SNOW  13   8  82 SE6       30.27F WCI   3
LAKE ELMO      LGT SNOW  14  10  85 E6        30.28F WCI   5
$$
MNZ001>005-007-008-013>017-022>024-027-028-110100-
   Northwest Minnesota

CITY           SKY/WX    TMP DP  RH WIND       PRES   REMARKS
BEMIDJI        CLOUDY    -4  -9  77 E6        30.22F WCI -16
HALLOCK        CLOUDY    -9 -13  84 CALM      30.30F
ROSEAU         CLOUDY    -8 -13  77 CALM      30.29F
WARROAD        CLOUDY    -8 -13  77 CALM      30.28F
THIEF RVR FALL CLOUDY    -6 -10  83 NE5       30.26F WCI -17
CROOKSTON      CLOUDY    -4  -8  84 E5        30.28F WCI -15
FOSSTON        CLOUDY    -6 -11  77 NE5       30.23F WCI -17
DETROIT LAKES  CLOUDY     1  -4  78 E3        30.21F
MOORHEAD       CLOUDY     0  -6  78 NE8       30.24F WCI -15
PARK RAPIDS    CLOUDY     1  -7  68 CALM      30.19F
$$
MNZ006-009>011-018-025>026-110100-
   North Central Minnesota

CITY           SKY/WX    TMP DP  RH WIND       PRES   REMARKS
BAUDETTE       CLOUDY    -2  -7  79 NE3       30.26F
FLAG ISLAND    CLEAR      0  -4  85 CALM      30.28F
INTL FALLS     CLOUDY   -11 -16  78 CALM      30.27F
6HR MIN TEMP: -11; 6HR MAX TEMP:   5;

WASKISH        CLOUDY    -2  -6  84 CALM      30.25F
BIG FORK       CLOUDY    -8 -13  77 CALM      30.25F
LONGVILLE      CLOUDY     0  -6  78 CALM      30.23F
GRAND RAPIDS   CLOUDY    -1  -7  75 CALM      30.26F
CRANE LAKE     CLEAR     -6  -8  92 CALM      30.31F
ORR            CLOUDY    -8 -11  84 CALM      30.23F
COOK           CLOUDY    -8  -9  92 CALM      30.26F
$$
MNZ012-019>021-037-110100-
   Northeast Minnesota

CITY           SKY/WX    TMP DP  RH WIND       PRES   REMARKS
DULUTH         PTCLDY     0  -4  83 NE5       30.24F WCI -10
6HR MIN TEMP:   0; 6HR MAX TEMP:   7;

ELY            CLOUDY    -6  -9  84 CALM      30.26F
HIBBING        CLOUDY    -8 -12  83 CALM      30.25F
EVELETH        CLOUDY    -5 -10  79 CALM      30.25F
DULUTH HARBOR  PTCLDY    10   1  67 CALM      30.33F
TWO HARBORS    CLOUDY     3  -4  72 CALM      30.27F
SILVER BAY     CLOUDY     0  -4  85 CALM      30.27F
GRAND MARAIS     N/A      6  -2  69 NW7       30.35F WCI  -6
G MARAIS ARPRT CLEAR     -6 -11  77 CALM      30.22F
$$
MNZ029>031-032-039>041-046>048-054>057-064-110100-
   West Central Minnesota

CITY           SKY/WX    TMP DP  RH WIND       PRES   REMARKS
FERGUS FALLS   FLURRIES   3  -2  78 E7        30.25F WCI  -9
WHEATON        LGT SNOW   7   3  85 E9        30.21F WCI  -7
MORRIS         LGT SNOW   7   3  85 E10       30.18S WCI  -8
ALEXANDRIA     LGT SNOW   6   0  76 E10       30.18F WCI  -9
ELBOW LAKE     LGT SNOW   5   0  79 E8        30.19F WCI  -8
WADENA         CLOUDY     1  -4  78 E6        30.19F WCI -10
GLENWOOD       LGT SNOW   7   3  85 E12       30.18F WCI  -9
APPLETON       LGT SNOW  10   7  85 E12       30.19F WCI  -4
BENSON         LGT SNOW   9   5  85 SE8       30.18F WCI  -4
ORTONVILLE     LGT SNOW   7   1  78 CALM      30.18S
MADISON        LGT SNOW  10   7  85 E9        30.18F WCI  -2
WILLMAR        LGT SNOW  10   7  85 E13       30.19F WCI  -5
$$
MNZ033>034-036-042>043-049>051-058-059-110100-
   Central Minnesota

CITY           SKY/WX    TMP DP  RH WIND       PRES   REMARKS
ST CLOUD       LGT SNOW   9   5  84 SE6       30.24F FOG     WCI  -1
6HR MIN TEMP:   6; 6HR MAX TEMP:   9; 6HR PCP:  0.01;

PAYNESVILLE    LGT SNOW   9   6  87 E9        30.20F WCI  -4
AITKIN         CLOUDY     7  -2  66 NE3       30.22F
PINE RIVER     CLOUDY     1  -2  85 CALM      30.24F
BRAINERD       CLOUDY     5  -2  72 CALM      30.23F
LONG PRAIRIE   LGT SNOW   5   1  85 NE7       30.20F WCI  -7
LITTLE FALLS   CLOUDY     9   0  66 E5        30.23F WCI   0
LITCHFIELD     LGT SNOW  10   7  85 E12       30.21F WCI  -4
BUFFALO        LGT SNOW  11   7  84 E7        30.26F WCI   0
MAPLE LAKE     LGT SNOW  12   9  87 E7        30.25F WCI   1
HUTCHINSON     LGT SNOW  11   8  85 E9        30.22F WCI  -1
$$
MNZ037-044-045-052-053-110100-
   East Central Minnesota

CITY           SKY/WX    TMP DP  RH WIND       PRES   REMARKS
PRINCETON      CLOUDY    10   3  72 E6        30.25F WCI   1
MORA           CLOUDY    10   1  67 E3        30.27F
CAMBRIDGE      FLURRIES  12   1  62 E5        30.25F WCI   4
RUSH CITY      CLOUDY    10   3  72 E3        30.27F
MOOSE LAKE     CLOUDY     9   1  72 CALM      30.25F
HINCKLEY       CLOUDY    10   5  79 CALM      30.27F
CLOQUET        CLOUDY     1  -4  78 E3        30.25F
MCGREGOR       CLOUDY     5   0  78 CALM      30.25F
$$
MNZ071>073-080-081-089-090-097-098-110100-
   Southwest Minnesota

CITY           SKY/WX    TMP DP  RH WIND       PRES   REMARKS
MONTEVIDEO     LGT SNOW   9   7  92 SE13      30.19F WCI  -7
GRANITE FALLS  LGT SNOW  12   8  85 E12       30.19F WCI  -2
CANBY          LGT SNOW   9   7  89 CALM      30.17S
MARSHALL       LGT SNOW   9   6  88 E13       30.14F FOG     WCI  -7
REDWOOD FALLS  LGT SNOW  11   6  81 E9        30.18F WCI  -2
OLIVIA         LGT SNOW  12   9  85 E13G20    30.18F WCI  -3
PIPESTONE      LGT SNOW  12   9  85 SE13G18   30.05R WCI  -3
WINDOM         LGT SNOW  10   9  92 MISG      30.11F
WORTHINGTON    LGT SNOW  12  10  92 E15       30.07F FOG     WCI  -4
JACKSON        LGT SNOW  12  10  92 E14       30.11F WCI  -3
TRACY          LGT SNOW  11   8  88 E13       30.12F WCI  -5
SLAYTON        LGT SNOW   9   7  90 E15       30.09F WCI  -7
$$
MNZ065>067-074>077-082>085-091>093-110100-
   South Central Minnesota

CITY           SKY/WX    TMP DP  RH WIND       PRES   REMARKS
MANKATO        LGT SNOW  11   8  88 E10       30.21F FOG     WCI  -3
NEW ULM        LGT SNOW  10   7  85 E12       30.19F WCI  -4
ST JAMES       LGT SNOW  12  10  92 E12       30.18F WCI  -2
FAIRMONT       FLURRIES  14  11  87 E13       30.16F WCI   0
GLENCOE        LGT SNOW  12  10  92 E9        30.22F WCI  -1
FARIBAULT      LGT SNOW  10   9  92 E6        30.24  WCI   1
OWATONNA       LGT SNOW  10   7  85 E12       30.22F WCI  -4
WASECA         LGT SNOW  12   9  85 E12       30.22F WCI  -2
ALBERT LEA     LGT SNOW  18  14  86 E9        30.19F WCI   6
$$
MNZ078>079-086>088-094>096-110100-
   Southeast Minnesota

CITY           SKY/WX    TMP DP  RH WIND       PRES   REMARKS
ROCHESTER      LGT SNOW  11   8  88 E9        30.22F FOG     WCI  -2
6HR MIN TEMP:   8; 6HR MAX TEMP:  11; 6HR PCP:  0.10;

RED WING       LGT SNOW  12   9  85 E5        30.28F WCI   4
STANTON        LGT SNOW  13   9  83 E8        30.24F WCI   2
DODGE CENTER   LGT SNOW  10   7  85 E8        30.21F WCI  -1
WINONA         LGT SNOW  16  12  86 E3        30.32F
AUSTIN         LGT SNOW  12  10  92 E13       30.20F WCI  -3
PRESTON        LGT SNOW  11   8  87 E6        30.24F WCI   2
$$
ABBREVIATIONS USED IN REMARKS
   TC - TEMPERATURES IN CELSIUS
  WCI - WIND CHILL INDEX
   HX - HEAT INDEX
  VSB - VISIBILITY
$$




USA.gov is the U.S. government's official web portal to all federal, state and local government web resources and services.